AirNav   $300 off a Bose A20 aviation headset
 
 873 users online  

53T Cannon Field Airport
Somerset, Texas, USA

GOING TO SOMERSET?


FAA INFORMATION EFFECTIVE 28 FEBRUARY 2019

Location

FAA Identifier: 53T
Lat/Long: 29-12-57.8640N / 098-32-58.0630W
29-12.964400N / 098-32.967717W
29.2160733 / -98.5494619
(estimated)
Elevation: 610 ft. / 186 m (estimated)
Variation: 07E (1985)
From city: 6 miles E of SOMERSET, TX
Time zone: UTC -6 (UTC -5 during Daylight Saving Time)
Zip code: 78264

Airport Operations

Airport use: Open to the public
Activation date: 09/1983
Control tower: no
ARTCC: HOUSTON CENTER
FSS: SAN ANGELO FLIGHT SERVICE STATION
NOTAMs facility: SJT (NOTAM-D service available)
Attendance: CONTINUOUS
FOR ARPT ATTENDANT CALL 210-842-0429.
Wind indicator: yes
Segmented circle: no

Airport Communications

CTAF/UNICOM: 123.0
WX ASOS at SSF (8 nm NE): PHONE 210-927-9391
WX AWOS-3 at PEZ (16 nm S): 118.575 (830-569-5749)
WX AWOS-3 at CVB (18 nm NW): 119.25 (830-931-0232)
WX ASOS at SAT (20 nm N): PHONE 210-805-5583

Nearby radio navigation aids

VOR radial/distance  VOR name  Freq  Var
SSFr236/(6.1)STINSON VOR108.4009E
RNDr212/22.8RANDOLPH VORTAC112.3005E
SATr182/26.1SAN ANTONIO VORTAC116.8008E

 
NDB name  Hdg/Dist  Freq  Var  ID
DEVINE070/20.935907EHHH .... .... ....
HONDO098/33.932908EHMA .... -- .-

Airport Services

Parking: hangars and tiedowns
Airframe service: MINOR
Powerplant service: MINOR

Runway Information

Runway 16/34

Dimensions: 2880 x 100 ft. / 878 x 30 m
ROLLING GRADIENT ENTIRE LENGTH OF RY NOT VISIBLE FM ENDS.
Surface: turf, in good condition
RY OCCASIONALLY ROUGH AND MAY FLOOD.
RUNWAY 16  RUNWAY 34
Traffic pattern: leftright
Displaced threshold: 200 ft.300 ft.
Obstructions: 4 ft. fence, 105 ft. right of centerline
RY 16 0:1 AT DSPLCD THR DUE TO 4 FT FENCE APPROX 105 FT R OF CNTRLN
49 ft. tree, 100 ft. left of centerline
RY 34 0:1 AT DSPLCD THR DUE TO +4 FT FENCE 51 FT R OF CNTRLN

Airport Ownership and Management from official FAA records

Ownership: Privately-owned
Owner: ALAMO LIAISON GROUP
2352 S LOOP 1604 W
SAN ANTONIO, TX 78264-3719
Phone 210-624-2226
Manager: RICHARD ROBERTS
2352 S LOOP 1604 W
SAN ANTONIO, TX 78264-3719
Phone 210-624-2226

Airport Operational Statistics

Aircraft based on the field: 13
Single engine airplanes: 13
    
Aircraft operations: avg 21/week *
91% local general aviation
9% transient general aviation
* for 12-month period ending 01 February 2017

Additional Remarks

WILD ANIMALS & MOWING EQUIP ON & INVOF ARPT.
+30 FT MARKED POWERLINE 500 FT ACROSS RY CNTRLN.
RYS 16 & 34 DISPLACED THLDS MARKED WITH WHITE PAINTED BARRELS.
RY 16/34 SOUTH HALF ROUGH EDGES.
RY 16 +4 FT FENCE 105 FT R PARALLEL TO RY; +6-10 FT TREES IN FENCE ROW 105 FT R OF CNTRLN.
RY 34 +4 FT FENCE 51 FT RIGHT PARALLEL TO RY.
FOR CD CTC SAT APCH AT 210-805-5516.

Instrument Procedures

There are no published instrument procedures at 53T.

Some nearby airports with instrument procedures:

KSSF - Stinson Municipal Airport (8 nm NE)
KSKF - Kelly Field Airport (10 nm N)
KPEZ - Pleasanton Municipal Airport (16 nm S)
KCVB - Castroville Municipal Airport (18 nm NW)
KSAT - San Antonio International Airport (20 nm N)
 
Loc | Ops | Rwys | IFR | FBO | Links
Com | Nav | Svcs | Stats | Notes
Area around 53T (Cannon Field Airport)
 
Road maps at: MapQuest Bing Google
 
Aerial photo
WARNING: Photo may not be current or correct
Aerial photo of 53T (Cannon Field Airport)
Photo taken 11-Jun-2010

Do you have a better or more recent aerial photo of Cannon Field Airport that you would like to share? If so, please send us your photo.

 
Sectional chart

 
Airport distance calculator
Flying to Cannon Field Airport? Find the distance to fly.

From to 53T

Sunrise and sunset
Times for 22-Mar-2019
 Local
(UTC-5)
 Zulu
(UTC)
Morning civil twilight07:1312:13
Sunrise07:3712:37
Sunset19:4600:46
Evening civil twilight20:0901:09

Current date and time
Zulu (UTC)  23-Mar-2019 01:49:38
Local (UTC-5)  22-Mar-2019 20:49:38
 
METAR
KSSF 
8nm NE 
230053Z 14010KT 10SM OVC060 23/08 A3001 RMK AO2 SLP157 T02330083
KSKF 
9nm N 
230056Z 13014G19KT 10SM OVC060 22/11 A3000 RMK AO2A SLP156 T02220107
KPEZ 
16nm S 
230135Z AUTO 13008G17KT 10SM BKN050 OVC065 21/09 A3004 RMK AO2 T02100091
KCVB 
17nm NW 
230135Z AUTO 14010KT 10SM OVC060 22/09 A3004 RMK AO2 T02180092
KSAT 
20nm N 
230051Z 14015KT 10SM OVC055 22/10 A3002 RMK AO2 SLP153 T02220100
TAF
KSSF 
8nm NE 
221910Z 2219/2318 16010G20KT P6SM SCT050 BKN070 FM222200 14010KT P6SM BKN040 FM230900 15007KT P6SM VCSH OVC025
KSKF 
9nm N 
221920Z 2219/2324 14012G18KT 9999 SCT030 SCT050 BKN250 QNH3000INS TEMPO 2219/2224 13014G25KT BECMG 2300/2301 14009KT 9999 SCT020 BKN040 OVC250 QNH2998INS BECMG 2305/2306 14012KT 9999 -SHRA BKN025 OVC040 QNH3001INS BECMG 2309/2310 14009KT 9999 VCSH BKN020 OVC040 QNH3005INS BECMG 2317/2318 15009KT 9999 VCSH SCT020 BKN040 QNH3000INS TX26/2221Z TN16/2312Z
KSAT 
20nm N 
221909Z 2219/2324 15012G20KT P6SM SCT045 BKN060 FM222200 15012KT P6SM BKN040 FM230900 16007KT P6SM VCSH OVC025
NOTAMs
Click for the latest NOTAMs
NOTAMs are issued by the DoD/FAA and will open in a separate window not controlled by AirNav.

 

 
 

Would you like to see your business listed on this page?

 If your business provides an interesting product or service to pilots, flight crews, aircraft, or users of the Cannon Field Airport, you should consider listing it here.  To start the listing process, click on the button below
 
Add a business
 

Other Pages about Cannon Field Airport

Update a link
 
Copyright © AirNav, LLC. All rights reserved. Privacy Policy  Contact